Home   Weather   Houston   Past weeks

Flag for USA Past Weather in Houston, Texas, USA — Yesterday and Last 2 Weeks

Now
79 °F

Passing clouds.


Feels Like: 82 °F
Forecast: 76 / 88 °F
Wind: 5 mph from East

Location: Houston Hobby Airport

Current Time: Jun 26, 2017 at 12:26:51 am

Latest Report: Jun 25, 2017 at 11:53 pm


Visibility: 10 mi

Pressure: 30.13 "Hg

Humidity: 77%

Dew Point: 71 °F

Location of HoustonLocation

Past Weather in Houston — Graph

°F

Houston Temperature Yesterday

Maximum temperature yesterday: 88 °F (at 4:53 pm)
Minimum temperature yesterday: 75 °F (at 5:41 am)
Average temperature yesterday: 80 °F

High & Low Weather Summary for the Past Weeks

 TemperatureHumidityPressure
High95 °F (Jun 19, 1:53 pm)94% (Jun 12, 5:53 am)30.16 "Hg (Jun 12, 5:53 am)
Low72 °F (Jun 11, 5:53 am)46% (Jun 19, 1:53 pm)29.56 "Hg (Jun 22, 2:53 am)
Average83 °F75%29.90 "Hg
* Reported Jun 10 10:53 pm — Jun 25 10:53 pm, Houston. Weather by CustomWeather, © 2017

Note: Actual official high and low records may vary slightly from our data, if they occured in-between our weather recording intervals... More about our weather records

Advertising

Houston Weather History for the Previous 24 Hours

Scroll right to see more
 ConditionsComfort  
Time TempWeatherWind HumidityBarometerVisibility
10:53 pm
Sun, Jun 25
81 °FPartly cloudy.5 mph74%30.12 "Hg10 mi
9:53 pm82 °FPassing clouds.3 mph74%30.11 "Hg10 mi
8:53 pm83 °FClear.5 mph72%30.10 "Hg10 mi
7:53 pm84 °FBroken clouds.7 mph70%30.09 "Hg10 mi
6:53 pm86 °FBroken clouds.8 mph65%30.09 "Hg10 mi
5:53 pm87 °FBroken clouds.8 mph63%30.07 "Hg10 mi
4:53 pm88 °FBroken clouds.13 mph61%30.09 "Hg10 mi
3:53 pm86 °FBroken clouds.10 mph67%30.09 "Hg10 mi
2:53 pm84 °FBroken clouds.8 mph77%30.11 "Hg10 mi
2:22 pm82 °FBroken clouds.6 mph79%30.11 "Hg10 mi
1:53 pm79 °FThunderstorms. Broken clouds.9 mph84%30.13 "Hg10 mi
1:27 pm78 °FThunderstorms. Broken clouds.No wind82%30.13 "Hg8 mi
1:09 pm77 °FLight rain. Broken clouds.8 mph85%30.13 "Hg8 mi
12:53 pm76 °FThunderstorms. Partly sunny.8 mph82%30.14 "Hg2 mi
11:53 am86 °FBroken clouds.9 mph70%30.16 "Hg10 mi
11:44 am86 °FBroken clouds.9 mph67%30.15 "Hg10 mi
10:53 am83 °FPartly sunny.10 mph72%30.16 "Hg10 mi
10:37 am82 °FPartly sunny.10 mph77%30.15 "Hg10 mi
9:53 am81 °FBroken clouds.10 mph74%30.16 "Hg10 mi
8:53 am78 °FBroken clouds.5 mph84%30.14 "Hg10 mi
8:20 am76 °FBroken clouds.7 mph91%30.12 "Hg10 mi
7:53 am76 °FBroken clouds.No wind91%30.12 "Hg10 mi
6:53 am76 °FLight rain. Broken clouds.10 mph88%30.10 "Hg10 mi
6:26 am75 °FLight rain. Broken clouds.6 mph88%30.08 "Hg10 mi
5:53 am75 °FThunderstorms. Partly cloudy.13 mph88%30.10 "Hg9 mi
5:41 am75 °FThunderstorms. Partly cloudy.9 mph90%30.08 "Hg9 mi
5:24 am76 °FThunderstorms. Partly cloudy.9 mph88%30.08 "Hg8 mi
5:10 am77 °FThunderstorms. Fog.10 mph88%30.08 "Hg5 mi
4:53 am80 °FThunderstorms. Passing clouds.3 mph85%30.09 "Hg7 mi
3:53 am79 °FPassing clouds.7 mph88%30.09 "Hg10 mi
3:23 am80 °FPassing clouds.6 mph85%30.08 "Hg10 mi
2:53 am80 °FPartly cloudy.No wind85%30.09 "Hg10 mi
1:53 am79 °FPassing clouds.No wind88%30.09 "Hg10 mi
12:53 am79 °FPassing clouds.No wind88%30.10 "Hg10 mi
Weather by CustomWeather, © 2017

See weather overviewHow to use our weather pages